Kodiak, AK

8:28 AM AKDT on September 27, 2016 (GMT -0800)
Kodiak

Weather History for PADQ - September, 2014

Change the Weather History Date:

Saturday, September 13, 2014

  Actual Average Record
Temperature  
Mean Temperature 53 °F 50 °F  
Max Temperature 59 °F 57 °F 71 °F (1980)
Min Temperature 46 °F 44 °F 35 °F (1972)
Degree Days  
Heating Degree Days 12 15  
Month to date heating degree days 115 171  
Since 1 July heating degree days 616 804  
Cooling Degree Days 0 0  
Month to date cooling degree days 0 0  
Year to date cooling degree days 4 1  
Growing Degree Days 2 (Base 50)    
Moisture  
Dew Point 49 °F    
Average Humidity 0    
Maximum Humidity 0    
Minimum Humidity 0    
Precipitation  
Precipitation 0.17 in 0.23 in 1.58 in (1978)
Month to date precipitation 4.08 2.75  
Year to date precipitation 53.31 49.54  
Snow  
Snow 0.00 in 0.00 in - ()
Month to date snowfall 0.0 0.0  
Since 1 July snowfall 0.0 0.0  
Since 1 September snowfall 0.0 0.0  
Snow Depth 0.00 in    
Sea Level Pressure  
Sea Level Pressure 29.66 in    
Wind  
Wind Speed 7 mph (SE)    
Max Wind Speed 17 mph    
Max Gust Speed 23 mph    
Visibility 10 miles    
Events Rain    
T = Trace of Precipitation, MM = Missing Value Source: NWS Daily Summary

Daily Weather History Graph

Daily Weather History Graph

Search for Another Location

Airport or City:

Trip Planner

Search our weather history database for the weather conditions in past years. The results will help you decide how hot, cold, wet, or windy it might be!

Date:

Astronomy

Sep. 13, 2014 Rise Set
Actual Time 7:36 AM AKDT 8:33 PM AKDT
Civil Twilight 6:56 AM AKDT 9:13 PM AKDT
Nautical Twilight 6:07 AM AKDT 10:01 PM AKDT
Astronomical Twilight 5:13 AM AKDT 10:55 PM AKDT
Moon 10:37 PM AKDT (9/13) 2:01 PM AKDT (9/13)
Length of Visible Light 14h 16m
Length of Day
12h 57m
Waning Gibbous, 72% of the Moon is Illuminated
Sep 13
Waning Gibbous
Sep 15
Last Quarter
Sep 23
New
Oct 1
First Quarter
Oct 8
Full

Hourly Weather History & Observations

Time (AKDT) Temp. Dew Point Humidity Pressure Visibility Wind Dir Wind Speed Gust Speed Precip Events Conditions
12:53 AM 53.1 °F 48.9 °F 86% 29.61 in 10.0 mi Calm Calm - N/A   Mostly Cloudy
1:00 AM 53.1 °F 48.9 °F 86% 29.61 in 10.0 mi Calm Calm - N/A   Overcast
1:53 AM 52.0 °F 48.9 °F 89% 29.63 in 10.0 mi Calm Calm - N/A   Overcast
2:53 AM 52.0 °F 50.0 °F 93% 29.65 in 10.0 mi Calm Calm - N/A   Overcast
3:53 AM 48.0 °F 46.0 °F 93% 29.66 in 10.0 mi SE 3.5 mph - N/A   Overcast
4:53 AM 46.9 °F 44.1 °F 90% 29.68 in 10.0 mi South 3.5 mph - N/A   Scattered Clouds
5:53 AM 46.9 °F 43.0 °F 86% 29.69 in 10.0 mi West 3.5 mph - N/A   Partly Cloudy
6:53 AM 48.9 °F 44.1 °F 83% 29.68 in 10.0 mi Calm Calm - N/A   Mostly Cloudy
7:53 AM 48.0 °F 46.0 °F 93% 29.69 in 5.0 mi West 3.5 mph - 0.02 in Rain Rain
8:53 AM 50.0 °F 46.9 °F 89% 29.69 in 10.0 mi Calm Calm - 0.05 in   Mostly Cloudy
9:53 AM 51.1 °F 48.9 °F 92% 29.70 in 9.0 mi Calm Calm - 0.03 in   Mostly Cloudy
10:53 AM 51.1 °F 48.9 °F 92% 29.70 in 4.0 mi SSE 3.5 mph - 0.00 in Rain Light Rain
11:53 AM 57.0 °F 52.0 °F 83% 29.71 in 10.0 mi Variable 5.8 mph - 0.02 in   Mostly Cloudy
12:53 PM 57.9 °F 53.1 °F 84% 29.70 in 10.0 mi East 6.9 mph - 0.00 in   Mostly Cloudy
1:53 PM 57.9 °F 50.0 °F 75% 29.70 in 10.0 mi SE 13.8 mph 20.7 mph N/A   Mostly Cloudy
2:53 PM 59.0 °F 52.0 °F 78% 29.69 in 10.0 mi ESE 16.1 mph - 0.00 in   Mostly Cloudy
3:53 PM 55.9 °F 52.0 °F 87% 29.68 in 10.0 mi ESE 12.7 mph - 0.00 in Rain Light Rain
4:53 PM 57.9 °F 52.0 °F 81% 29.67 in 9.0 mi SSE 11.5 mph - 0.02 in Rain Light Rain
5:53 PM 57.0 °F 48.9 °F 74% 29.66 in 10.0 mi SE 11.5 mph - 0.00 in   Scattered Clouds
6:53 PM 55.9 °F 50.0 °F 80% 29.65 in 10.0 mi SE 12.7 mph - 0.00 in   Mostly Cloudy
7:53 PM 54.0 °F 51.1 °F 90% 29.64 in 9.0 mi East 9.2 mph - 0.00 in   Mostly Cloudy
8:53 PM 55.0 °F 50.0 °F 83% 29.63 in 10.0 mi ESE 10.4 mph - 0.00 in Rain Light Rain
9:53 PM 54.0 °F 50.0 °F 86% 29.62 in 10.0 mi ESE 11.5 mph - 0.00 in   Mostly Cloudy
10:53 PM 54.0 °F 50.0 °F 86% 29.61 in 10.0 mi ESE 12.7 mph - 0.03 in   Mostly Cloudy
11:53 PM 55.0 °F 48.9 °F 80% 29.59 in 10.0 mi SE 16.1 mph - N/A   Mostly Cloudy